Weather History for KJKL - May, 2014

Change the Weather History Date:

Sunday, May 25, 2014

  Actual Average Record
Temperature  
Mean Temperature 69 °F 67 °F  
Max Temperature 80 °F 76 °F 88 °F (1991)
Min Temperature 57 °F 57 °F 42 °F (2013)
Degree Days  
Heating Degree Days 0 2  
Month to date heating degree days 79 90  
Since 1 July heating degree days 4509 4211  
Cooling Degree Days 4 4  
Month to date cooling degree days 99 67  
Year to date cooling degree days 138 113  
Growing Degree Days 18 (Base 50)    
Moisture  
Dew Point 50 °F    
Average Humidity 58    
Maximum Humidity 80    
Minimum Humidity 35    
Precipitation  
Precipitation 0.00 in 0.17 in 1.00 in (2006)
Month to date precipitation 2.07 4.15  
Year to date precipitation 20.63 19.46  
Snow  
Snow 0.00 in 0.00 in - ()
Month to date snowfall 0.0 0.0  
Since 1 July snowfall 38.9 23.5  
Snow Depth 0.00 in    
Sea Level Pressure  
Sea Level Pressure 30.14 in    
Wind  
Wind Speed 2 mph (ENE)    
Max Wind Speed 8 mph    
Max Gust Speed 11 mph    
Visibility 10 miles    
Events      
T = Trace of Precipitation, MM = Missing Value Source: NWS Daily Summary

Daily Weather History Graph

Daily Weather History Graph

Search for Another Location

Airport or City:

Trip Planner

Search our weather history database for the weather conditions in past years. The results will help you decide how hot, cold, wet, or windy it might be!

Date:

Astronomy

May. 25, 2014 Rise Set
Actual Time 6:16 AM EDT 8:44 PM EDT
Civil Twilight 5:46 AM EDT 9:14 PM EDT
Nautical Twilight 5:09 AM EDT 9:51 PM EDT
Astronomical Twilight 4:28 AM EDT 10:32 PM EDT
Moon 4:16 AM EDT (5/25) 5:46 PM EDT (5/25)
Length of Visible Light 15h 27m
Length of Day
14h 27m
Waning Crescent, 10% of the Moon is Illuminated
May 25
Waning Crescent
May 28
New
Jun 5
First Quarter
Jun 13
Full
Jun 19
Last Quarter

Hourly Weather History & Observations

Time (EDT) Temp. Dew Point Humidity Pressure Visibility Wind Dir Wind Speed Gust Speed Precip Events Conditions
12:53 AM 61.0 °F 50.0 °F 67% 30.14 in 10.0 mi Calm Calm - N/A   Clear
1:53 AM 60.8 °F 50.0 °F 68% 30.17 in 10.0 mi Calm Calm - N/A   Clear
2:53 AM 60.1 °F 48.9 °F 67% 30.13 in 10.0 mi Calm Calm - N/A   Clear
3:53 AM 59.0 °F 48.9 °F 69% 30.12 in 10.0 mi NE 3.5 mph - N/A   Clear
4:53 AM 57.2 °F 48.2 °F 72% 30.15 in 10.0 mi Calm Calm - N/A   Clear
5:53 AM 57.9 °F 48.9 °F 72% 30.13 in 10.0 mi Calm Calm - N/A   Clear
6:53 AM 57.0 °F 50.0 °F 77% 30.15 in 10.0 mi ENE 3.5 mph - N/A   Clear
7:53 AM 57.2 °F 51.8 °F 82% 30.19 in 10.0 mi Calm Calm - N/A   Clear
8:53 AM 62.1 °F 52.0 °F 70% 30.17 in 10.0 mi Calm Calm - N/A   Clear
9:53 AM 62.1 °F 53.1 °F 72% 30.17 in 10.0 mi Calm Calm - N/A   Clear
10:53 AM 66.2 °F 55.4 °F 68% 30.19 in 10.0 mi Variable 3.5 mph - N/A   Clear
11:53 AM 70.0 °F 55.0 °F 59% 30.17 in 10.0 mi Variable 3.5 mph - N/A   Clear
12:53 PM 70.0 °F 55.0 °F 59% 30.16 in 10.0 mi Calm Calm - N/A   Clear
1:53 PM 73.0 °F 51.1 °F 46% 30.15 in 10.0 mi Variable 3.5 mph - N/A   Clear
2:53 PM 77.0 °F 48.9 °F 37% 30.14 in 10.0 mi Calm Calm - N/A   Clear
3:53 PM 79.0 °F 48.9 °F 35% 30.13 in 10.0 mi Variable 3.5 mph - N/A   Clear
4:53 PM 80.1 °F 50.0 °F 35% 30.12 in 10.0 mi Variable 3.5 mph - N/A   Clear
5:53 PM 79.0 °F 48.9 °F 35% 30.11 in 10.0 mi Variable 4.6 mph - N/A   Clear
6:53 PM 78.1 °F 50.0 °F 37% 30.11 in 10.0 mi Variable 3.5 mph - N/A   Clear
7:53 PM 75.9 °F 48.9 °F 38% 30.10 in 10.0 mi Calm Calm - N/A   Clear
8:53 PM 73.0 °F 46.9 °F 39% 30.10 in 10.0 mi Calm Calm - N/A   Clear
9:53 PM 72.0 °F 46.0 °F 40% 30.12 in 10.0 mi Calm Calm - N/A   Clear
10:53 PM 68.0 °F 46.9 °F 47% 30.12 in 10.0 mi Calm Calm - N/A   Clear
11:53 PM 68.0 °F 48.9 °F 50% 30.12 in 10.0 mi ESE 4.6 mph - N/A   Clear